Home   Weather   Jennersdorf   Past weeks

Flag for Austria Past Weather in Jennersdorf, Burgenland, Austria — Yesterday and Last 2 Weeks

Now
56 °F

Sunny.


Feels Like: 56 °F
Forecast: 55 / 76 °F
Wind: 1 mph from South

Location: Murska Sobota

Current Time: Jul 26, 2017 at 6:58:55 am

Latest Report: Jul 26, 2017 at 6:00 am


Visibility: N/A

Pressure: 29.71 "Hg

Humidity: 95%

Dew Point: 55 °F

Location of JennersdorfLocation

Past Weather in Jennersdorf — Graph

°F

Jennersdorf Temperature Yesterday

Maximum temperature yesterday: 76 °F (at 2:00 pm)
Minimum temperature yesterday: 59 °F (at 6:00 am)
Average temperature yesterday: 67 °F

High & Low Weather Summary for the Past Weeks

 TemperatureHumidityPressure
High92 °F (Jul 22, 5:00 pm)98% (Jul 12, 6:00 am)30.22 "Hg (Jul 12, 6:00 am)
Low52 °F (Jul 17, 5:00 am)29% (Jul 19, 5:00 pm)29.62 "Hg (Jul 24, 8:00 pm)
Average71 °F67%29.94 "Hg
* Reported Jul 11 5:00 am — Jul 26 5:00 am, Jennersdorf. Weather by CustomWeather, © 2017

Note: Actual official high and low records may vary slightly from our data, if they occured in-between our weather recording intervals... More about our weather records

Advertising

Jennersdorf Weather History for the Previous 24 Hours

Scroll right to see more
 ConditionsComfort  
Time TempWeatherWind HumidityBarometerVisibility
5:00 am
Wed, Jul 26
57 °FPassing clouds.1 mph95%29.70 "HgN/A
4:00 am58 °FPassing clouds.2 mph94%29.71 "HgN/A
3:00 am60 °FOvercast.1 mph91%29.72 "HgN/A
2:00 am60 °FOvercast.2 mph87%29.72 "HgN/A
1:00 am60 °FOvercast.2 mph88%29.73 "HgN/A
12:00 am61 °FOvercast.2 mph83%29.73 "HgN/A
11:00 pm
Tue, Jul 25
63 °FOvercast.5 mph74%29.73 "HgN/A
10:00 pm65 °FOvercast.3 mph70%29.72 "HgN/A
9:00 pm66 °FOvercast.3 mph64%29.69 "HgN/A
8:00 pm69 °FPartly sunny.3 mph58%29.67 "HgN/A
7:00 pm73 °FOvercast.2 mph47%29.67 "HgN/A
6:00 pm75 °FOvercast.2 mph44%29.66 "HgN/A
5:00 pm75 °FOvercast.2 mph42%29.66 "HgN/A
4:00 pm76 °FPartly sunny.1 mph39%29.66 "HgN/A
3:00 pm75 °FPartly sunny.2 mph44%29.67 "HgN/A
2:00 pm76 °FScattered clouds.3 mph41%29.69 "HgN/A
1:00 pm73 °FPassing clouds.1 mph49%29.70 "HgN/A
12:00 pm72 °FSunny.2 mph55%29.70 "HgN/A
11:00 am70 °FPassing clouds.2 mph57%29.70 "HgN/A
10:00 am67 °FSunny.2 mph69%29.71 "HgN/A
9:00 am65 °FPassing clouds.2 mph79%29.70 "HgN/A
8:00 am63 °FSunny.2 mph86%29.70 "HgN/A
7:00 am61 °FSunny.1 mph92%29.70 "HgN/A
6:00 am59 °FScattered clouds.1 mph98%29.70 "HgN/A
Weather by CustomWeather, © 2017

See weather overviewHow to use our weather pages